This is the latest recevied weather packets stored in our database for station/object VK7TM-1. If no packets are shown the sender has not sent any weather packets the latest 10 day(s).
| Time | Temp. | Humidity | Pressure | Rain* | Wind** | Luminosity | Snow |
|---|---|---|---|---|---|---|---|
| 1778386622 | 15° C | 75% | 1031.9 hPa | 0 mm | - | 288 W/m² | - |
| 1778386332 | 15° C | 77% | 1032.1 hPa | 0 mm | - | 297 W/m² | - |
| 1778386042 | 15° C | 77% | 1032 hPa | 0 mm | - | 306 W/m² | - |
| 1778385752 | 15.56° C | 75% | 1032.1 hPa | 0 mm | - | 311 W/m² | - |
| 1778385462 | 15.56° C | 74% | 1031.9 hPa | 0 mm | - | 319 W/m² | - |
| 1778385172 | 15.56° C | 74% | 1032 hPa | 0 mm | - | 327 W/m² | - |
| 1778384882 | 15.56° C | 72% | 1032 hPa | 0 mm | - | 334 W/m² | - |
| 1778384592 | 15.56° C | 72% | 1031.9 hPa | 0 mm | - | 344 W/m² | - |
| 1778384302 | 16.11° C | 71% | 1031.9 hPa | 0 mm | - | 351 W/m² | - |
| 1778384012 | 16.11° C | 71% | 1031.9 hPa | 0 mm | - | 359 W/m² | - |
| 1778383722 | 15.56° C | 69% | 1031.8 hPa | 0 mm | - | 365 W/m² | - |
| 1778383432 | 15.56° C | 68% | 1031.8 hPa | 0 mm | - | 369 W/m² | - |
| 1778383142 | 15.56° C | 70% | 1031.9 hPa | 0 mm | - | 373 W/m² | - |
| 1778382852 | 16.11° C | 69% | 1031.8 hPa | 0 mm | - | 381 W/m² | - |
| 1778382562 | 15.56° C | 72% | 1031.9 hPa | 0 mm | - | 388 W/m² | - |
| 1778382272 | 15.56° C | 71% | 1031.8 hPa | 0 mm | - | 394 W/m² | - |
| 1778381982 | 15.56° C | 72% | 1032.1 hPa | 0 mm | - | 399 W/m² | - |
| 1778381692 | 16.11° C | 70% | 1031.9 hPa | 0 mm | - | 400 W/m² | - |
| 1778381402 | 16.11° C | 68% | 1032 hPa | 0 mm | - | 395 W/m² | - |
| 1778381112 | 16.11° C | 70% | 1032 hPa | 0 mm | - | 350 W/m² | - |
| 1778380822 | 16.67° C | 68% | 1032 hPa | 0 mm | - | 169 W/m² | - |
| 1778380532 | 16.11° C | 68% | 1032 hPa | 0 mm | - | 366 W/m² | - |
| 1778380242 | 16.11° C | 70% | 1032 hPa | 0 mm | - | 408 W/m² | - |
| 1778379952 | 15.56° C | 69% | 1032.1 hPa | 0 mm | - | 417 W/m² | - |
| 1778379662 | 16.11° C | 69% | 1032.1 hPa | 0 mm | - | 420 W/m² | - |
* Rain latest hour (hover to see other rain measurements)
** Current wind speed in m/s (hover to see current wind gust speed)